Location: Beeston
(52.7000°N, 0.8167°E)
Time: 16:22:16
(UTC+00:00)

Cosmos 2237 Rocket - Pass Details

Date: 15 May 2026
Orbit: 834 x 849 km, 71.0° (Epoch: 10 June)

Event Time Altitude Azimuth Distance (km) Brightness Sun altitude
Rises 22:34:37 0° 329° (NNW) 3,422 7.0 -16.3°
Reaches altitude 10° 22:37:11 10° 335° (NNW) 2,482 6.0 -16.4°
Maximum altitude 22:42:42 48° 50° (NE) 1,096 2.9 -16.6°
Enters shadow 22:46:58 16° 119° (ESE) 2,046 3.8 -16.8°
